Weather History for KGUY - October, 2011

Change the Weather History Date:

Wednesday, October 19, 2011

  Actual Average Record
Temperature  
Mean Temperature 52 °F 56 °F  
Max Temperature 64 °F 71 °F 93 °F (2003)
Min Temperature 39 °F 41 °F 30 °F (2001)
Degree Days  
Heating Degree Days 13 9  
Month to date heating degree days 82 128  
Since 1 July heating degree days 105 171  
Cooling Degree Days 0 0  
Month to date cooling degree days 47 25  
Year to date cooling degree days 2159 1479  
Growing Degree Days 2 (Base 50)    
Moisture  
Dew Point 25 °F    
Average Humidity 41    
Maximum Humidity 59    
Minimum Humidity 22    
Precipitation  
Precipitation 0.00 in 0.05 in 0.10 in (2002)
Month to date precipitation 0.44 1.09  
Year to date precipitation 6.46 17.65  
Snow  
Snow 0.00 in - - ()
Month to date snowfall 0.0  
Since 1 July snowfall 0.0  
Since 1 September snowfall 0.0  
Snow Depth 0.00 in    
Sea Level Pressure  
Sea Level Pressure 30.11 in    
Wind  
Wind Speed 7 mph (WNW)    
Max Wind Speed 15 mph    
Max Gust Speed 21 mph    
Visibility 10 miles    
Events      
T = Trace of Precipitation, MM = Missing Value Source: NWS Daily Summary

Daily Weather History Graph

Daily Weather History Graph

Search for Another Location

Airport or City:

Trip Planner

Search our weather history database for the weather conditions in past years. The results will help you decide how hot, cold, wet, or windy it might be!

Date:

Astronomy

Oct. 19, 2011 Rise Set
Actual Time 7:56 AM CDT 7:04 PM CDT
Civil Twilight 7:30 AM CDT 7:30 PM CDT
Nautical Twilight 7:00 AM CDT 8:00 PM CDT
Astronomical Twilight 6:30 AM CDT 8:30 PM CDT
Moon No Moon Rise 2:24 PM CDT (10/19)
Length of Visible Light 12h 00m
Length of Day
11h 07m
Waning Gibbous, 54% of the Moon is Illuminated
Oct 19
Waning Gibbous
Oct 19
Last Quarter
Oct 26
New
Nov 2
First Quarter
Nov 10
Full

Hourly Weather History & Observations

Time (CDT) Temp. Windchill Dew Point Humidity Pressure Visibility Wind Dir Wind Speed Gust Speed Precip Events Conditions
12:53 AM 39.9 °F 32.9 °F 25.0 °F 55% 30.19 in 10.0 mi West 11.5 mph - N/A   Clear
1:53 AM 41.0 °F 34.7 °F 26.1 °F 55% 30.17 in 10.0 mi WNW 10.4 mph - N/A   Clear
2:53 AM 41.0 °F 33.9 °F 26.1 °F 55% 30.17 in 10.0 mi West 12.7 mph - N/A   Clear
3:53 AM 39.0 °F 32.3 °F 25.0 °F 57% 30.16 in 10.0 mi West 10.4 mph - N/A   Clear
4:53 AM 39.9 °F 32.1 °F 26.1 °F 58% 30.16 in 10.0 mi West 13.8 mph - N/A   Clear
6:53 AM 39.9 °F 32.5 °F 25.0 °F 55% 30.19 in 10.0 mi NNW 12.7 mph - N/A   Clear
7:53 AM 39.0 °F 31.8 °F 25.0 °F 57% 30.22 in 10.0 mi NNW 11.5 mph - N/A   Clear
8:53 AM 42.1 °F 35.2 °F 26.1 °F 53% 30.22 in 10.0 mi NNW 12.7 mph - N/A   Clear
9:53 AM 48.9 °F - 25.0 °F 39% 30.23 in 10.0 mi North 11.5 mph - N/A   Clear
12:53 PM 59.0 °F - 23.0 °F 25% 30.17 in 10.0 mi Variable 5.8 mph - N/A   Clear
1:53 PM 60.1 °F - 23.0 °F 24% 30.12 in 10.0 mi Variable 3.5 mph 16.1 mph N/A   Clear
2:53 PM 62.1 °F - 24.1 °F 23% 30.08 in 10.0 mi Variable 5.8 mph - N/A   Clear
3:53 PM 62.1 °F - 24.1 °F 23% 30.05 in 10.0 mi NNW 9.2 mph 16.1 mph N/A   Clear
4:53 PM 64.0 °F - 25.0 °F 23% 30.03 in 10.0 mi NW 8.1 mph - N/A   Clear
5:53 PM 63.0 °F - 24.1 °F 23% 30.02 in 10.0 mi Calm Calm - N/A   Clear
6:53 PM 57.9 °F - 25.0 °F 28% 30.02 in 10.0 mi Calm Calm - N/A   Clear
7:53 PM 54.0 °F - 26.1 °F 34% 30.02 in 10.0 mi SE 3.5 mph - N/A   Clear
8:53 PM 50.0 °F - 25.0 °F 38% 30.03 in 10.0 mi ESE 4.6 mph - N/A   Clear
9:53 PM 46.9 °F - 24.1 °F 41% 30.02 in 10.0 mi South 3.5 mph - N/A   Clear
10:53 PM 46.0 °F 44.8 °F 24.1 °F 42% 30.01 in 10.0 mi SSE 3.5 mph - N/A   Clear
11:53 PM 44.1 °F - 24.1 °F 45% 30.01 in 10.0 mi Calm Calm - N/A   Clear